Location: Hawthorne
(33.9164°N, 118.3526°W)
Time: 05:27:25
(UTC+00:00)

Daily predictions for brighter satellites

Satellite Brightness Start Highest point End
(mag) Time Altitude Azimuth Time Altitude Azimuth Time Altitude Azimuth
USA 276 3.6 01:08:06 10° NNW 01:10:31 20° NNE 01:12:56 10° E
CZ-4C R/B 4.2 01:08:19 10° N 01:13:26 19° NE 01:19:01 10° E
ATLAS CENTAUR R/B 4.4 01:01:11 10° SW 01:14:07 50° NW 01:19:23 10° NNE
H-2A R/B 2.8 01:10:02 10° SE 01:14:30 30° ENE 01:18:54 10° N
Meteor PRIRODA 4.3 01:12:55 10° S 01:16:30 59° W 01:20:05 10° NNW
COSMO-SKYMED 1 3.6 01:14:02 10° NE 01:17:44 27° E 01:21:23 10° SSE
Cosmos 1092 Rocket 4.1 01:13:45 10° N 01:20:01 59° E 01:26:13 10° SSE
FengYun 1-2 T 4.3 01:15:58 10° SSE 01:21:35 89° E 01:27:10 10° NNW
Cosmos 1656 3.9 01:16:41 10° NNW 01:22:15 80° WSW 01:27:53 10° SSE
Cosmos 1633 Rocket 4.4 01:24:35 10° NNE 01:27:36 18° ENE 01:30:37 10° ESE
Cosmos 1602 3.7 01:25:24 10° N 01:29:13 59° E 01:33:01 10° SSE
Cosmos 841 Rocket 3.5 01:24:51 10° SSW 01:30:01 88° ESE 01:35:12 10° NNE
Cosmos 1782 2.7 01:26:11 10° S 01:30:10 79° E 01:34:10 10° N
Aurora 2 Rocket 4.5 01:28:08 10° WSW 01:32:21 31° S 01:38:02 10° ESE
Okean O Rocket 2.7 01:30:24 10° ESE 01:33:51 23° ENE 01:37:19 10° NNE
Cosmos 1697 Rocket 2.7 01:29:37 10° NNW 01:35:10 61° ENE 01:40:42 10° SSE
Cosmos 1151 Rocket 3.3 01:32:23 10° SSE 01:36:27 44° E 01:40:35 10° NNE
Cosmos 1980 Rocket 2.8 01:34:06 10° N 01:39:07 32° ENE 01:44:05 10° SE
Cosmos 2369 4.0 01:34:09 10° N 01:39:34 42° ENE 01:44:56 10° SE
Cosmos 1937 Rocket 3.6 01:34:58 10° N 01:40:13 58° ENE 01:45:26 10° SSE
NOAA 6 4.3 01:35:43 10° S 01:40:51 74° WSW 01:46:00 10° NNW
Cosmos 1627 Rocket 4.4 01:34:48 10° N 01:40:57 75° E 01:47:03 10° S
Cosmos 2279 Rocket 4.1 01:35:01 10° SSE 01:41:03 56° E 01:47:05 10° NNE
Cosmos 1743 Rocket 4.3 01:37:14 10° NNW 01:41:26 54° W 01:45:39 10° S
CZ-2D R/B 3.1 01:40:31 10° SSE 01:44:18 67° ENE 01:48:07 10° N
Cosmos 2082 Rocket 2.4 01:40:51 10° SSW 01:46:33 77° WNW 01:52:14 10° NNE
Meteor 1-25 Rocket 4.5 01:41:22 10° NNW 01:46:55 72° W 01:52:31 10° S
CZ-2C R/B 2.3 01:47:41 10° SW 01:51:35 36° SSE 01:53:47 20° ESE
Cosmos 1328 Rocket 3.8 01:47:36 10° SSE 01:51:50 47° E 01:56:06 10° NNE
CZ-4B DEB 4.4 01:47:16 10° S 01:52:47 79° WSW 01:58:18 10° NNW
Cosmos 1666 Rocket 3.8 01:48:43 10° N 01:52:57 44° E 01:57:07 10° SSE
Cosmos 372 Rocket 4.2 01:48:22 10° N 01:53:25 47° ENE 01:58:26 10° SE
Cosmos 1634 Rocket 4.5 01:50:51 10° SSW 01:57:06 64° W 02:03:23 10° N
Meteor 2-21 4.4 01:51:03 10° N 01:57:09 89° E 02:03:10 10° S
Cosmos 1500 3.2 01:58:10 10° N 02:01:55 80° W 02:05:36 10° S
Cosmos 2278 4.2 01:58:37 10° N 02:03:52 37° ENE 02:09:04 10° SE
SKYMED 2 3.7 02:01:31 10° N 02:05:52 78° WNW 02:10:11 10° SSW
Landsat 5 3.2 02:03:11 12° NNE 02:06:53 73° ESE 02:10:48 10° S
ARGOS 3.2 02:02:03 10° SSE 02:07:20 58° ENE 02:12:39 10° N
SL-08 RB Rocket 4.1 02:06:09 10° SE 02:10:28 40° ENE 02:14:48 10° N
Cosmos 2026 Rocket 4.4 02:05:03 10° NNW 02:11:04 62° W 02:17:00 10° S
ATLAS 5 CENTAUR R/B 4.0 02:08:09 10° SW 02:12:43 13° S 02:15:36 10° SSE
COSMOS 2455 4.1 02:07:32 10° SW 02:13:03 37° WNW 02:18:36 10° N
Meteor 2-6 Rocket 4.2 02:11:34 10° S 02:17:25 88° E 02:23:07 10° N
Meteor 2-15 4.3 02:12:12 10° S 02:18:17 70° E 02:24:20 10° NNE
Cosmos 1570 Rocket 4.4 02:13:59 10° SSW 02:19:10 62° WNW 02:24:22 10° N
GPS 2-04 Rocket1 2.6 02:16:10 10° WNW 02:20:18 78° N 02:21:03 57° E
Sich 1 4.4 02:17:23 10° NNW 02:21:23 39° W 02:25:24 10° SSW
DEBRIS 2.2 02:20:16 10° SW 02:22:27 85° NNW 02:22:37 78° NNE
USA 229 DEB 4.3 02:15:06 10° NW 02:22:35 67° WSW 02:30:25 10° SSE
USA 229 4.3 02:15:11 10° NW 02:22:41 68° WSW 02:30:30 10° SSE
DMSP B5D2-2 4.1 02:21:26 31° NE 02:23:44 53° E 02:28:50 10° S
H-2A R/B 3.8 02:26:39 19° SE 02:26:39 19° SE 02:28:18 10° SSE
Cosmos 1655 Rocket 4.1 02:19:32 10° N 02:25:45 51° E 02:31:52 10° SSE
CZ-4C R/B 2.8 02:25:26 64° NNW 02:25:51 79° WNW 02:29:11 10° SSW
CZ-4B R/B 3.3 02:20:43 10° S 02:26:11 75° WSW 02:31:34 10° NNW
deb Chang Zheng 4 3.8 02:24:25 10° S 02:28:40 68° WSW 02:32:59 10° NNW
USA 234 3.3 02:24:13 10° SE 02:30:46 83° SW 02:37:20 10° NW
Cosmos 1666 3.0 02:27:48 10° NNW 02:31:29 62° W 02:35:08 10° S
Cosmos 1515 Rocket 3.4 02:28:47 10° S 02:33:12 76° E 02:34:03 57° NNE
NOSS 3-3 (A) 4.5 02:29:51 10° S 02:33:55 32° SE 02:33:55 32° SE
CZ-2C R/B 3.7 02:30:13 10° N 02:35:05 42° WNW 02:39:54 10° SW
Meteor 1-10 Rocket 4.2 02:30:59 10° S 02:36:50 87° W 02:41:51 14° N
X-37B 2.5 02:36:28 10° SW 02:37:48 25° SW 02:37:48 25° SW
USA 276 4.1 02:43:45 10° WNW 02:45:51 29° WSW 02:45:51 29° WSW
Cosmos 836 Rocket 4.4 02:41:55 10° S 02:47:11 71° ESE 02:47:13 71° E
Feng Yun 1-1 Rocket 4.3 02:42:46 10° SSE 02:48:41 87° ENE 02:54:37 10° NNW
Cosmos 1867 3.7 02:46:41 10° SSW 02:51:23 57° SSE 02:51:23 57° SSE
H-2A R/B 4.1 02:49:28 10° SSW 02:53:50 27° W 02:58:08 10° NW
APEX 4.1 02:50:16 10° SW 02:54:07 50° W 02:54:07 50° W
Cosmos 921 Rocket 4.3 02:56:33 10° SW 03:00:23 36° WNW 03:01:06 33° NW
CZ-4C R/B 3.0 02:55:16 10° NNW 03:03:01 80° ENE 03:07:13 35° SE
USA 32 4.2 03:00:48 10° S 03:05:59 70° W 03:06:22 67° NW
Okean O Rocket 3.7 03:06:17 10° SSW 03:10:01 26° W 03:13:47 10° NW
Cosmos 1980 Rocket 4.0 03:18:11 10° NW 03:22:58 29° WSW 03:27:42 10° SSW
CZ-2C R/B 4.0 03:26:51 10° W 03:27:57 18° W 03:27:57 18° W
ATLAS 3B CENTAUR R/B 4.2 03:43:58 10° W 04:02:54 69° S 04:04:12 67° SSE
Cosmos 2369 Rocket 3.4 11:47:55 37° E 11:47:55 37° E 11:52:48 10° NE
